Weather History for Charlottesville, VA

Change the Weather History Date:

Friday, August 3, 2012

  Actual Average Record
Temperature  
Mean Temperature 80 °F 75 °F  
Max Temperature 89 °F 85 °F 101 °F (1930)
Min Temperature 70 °F 65 °F 52 °F (1976)
Degree Days  
Heating Degree Days 0 0  
Month to date heating degree days 0 0  
Since 1 June heating degree days 0 12  
Since 1 July heating degree days 0 1  
Cooling Degree Days 15 10  
Month to date cooling degree days 42 30  
Year to date cooling degree days 1157 660  
Since 1 June cooling degree days 887 574  
Growing Degree Days 30 (Base 50)    
Moisture  
Dew Point 70 °F    
Average Humidity 73    
Maximum Humidity 90    
Minimum Humidity 55    
Precipitation  
Precipitation 0.04 in 0.15 in 1.11 in (2003)
Month to date precipitation 0.19 0.43  
Year to date precipitation 21.87 24.95  
Sea Level Pressure  
Sea Level Pressure 29.99 in    
Wind  
Wind Speed 4 mph (South)    
Max Wind Speed 9 mph    
Max Gust Speed 15 mph    
Visibility 9 miles    
Events Rain , Thunderstorm    
T = Trace of Precipitation, MM = Missing Value Source: NWS Daily Summary

Daily Weather History Graph

Daily Weather History Graph

Search for Another Location

Airport:

Trip Planner

Search our weather history database for the weather conditions in past years. The results will help you decide how hot, cold, wet, or windy it might be!

Date:

Astronomy

Aug. 03, 2012 Rise Set
Actual Time 6:18 AM EDT 8:20 PM EDT
Civil Twilight 5:49 AM EDT 8:49 PM EDT
Nautical Twilight 5:14 AM EDT 9:25 PM EDT
Astronomical Twilight 4:35 AM EDT 10:03 PM EDT
Moon 9:01 PM EDT (8/3) 7:57 AM EDT (8/3)
Length of Visible Light 15h 00m
Length of Day
14h 02m
Full, 97% of the Moon is Illuminated
Aug 3
Full
Aug 9
Last Quarter
Aug 17
New
Aug 24
First Quarter
Aug 31
Full

Hourly Weather History & Observations

Time (EDT) Temp. Heat Index Dew Point Humidity Pressure Visibility Wind Dir Wind Speed Gust Speed Precip Events Conditions
12:53 AM 75.0 °F - 68.0 °F 79% 29.95 in 10.0 mi SSE 5.8 mph - N/A   Clear
1:53 AM 73.9 °F - 68.0 °F 82% 29.94 in 10.0 mi SSW 3.5 mph - N/A   Clear
2:53 AM 73.0 °F - 68.0 °F 84% 29.92 in 10.0 mi South 6.9 mph - N/A   Clear
3:53 AM 72.0 °F - 68.0 °F 87% 29.94 in 10.0 mi SW 3.5 mph - N/A   Clear
4:53 AM 71.1 °F - 68.0 °F 90% 29.94 in 7.0 mi Calm Calm - N/A   Clear
6:53 AM 71.1 °F - 68.0 °F 90% 29.95 in 6.0 mi SSW 4.6 mph - N/A   Clear
7:53 AM 73.0 °F - 69.1 °F 87% 29.96 in 7.0 mi Calm Calm - N/A   Clear
8:53 AM 75.0 °F - 70.0 °F 84% 29.99 in 6.0 mi South 3.5 mph - N/A   Haze
9:53 AM 78.1 °F - 70.0 °F 76% 30.01 in 10.0 mi South 8.1 mph - N/A   Haze
10:53 AM 80.1 °F 83.2 °F 70.0 °F 71% 30.03 in 10.0 mi SSE 4.6 mph - N/A   Clear
11:53 AM 82.0 °F 86.3 °F 71.1 °F 69% 30.02 in 10.0 mi Calm Calm - N/A   Clear
12:53 PM 84.9 °F 90.1 °F 71.1 °F 63% 30.01 in 10.0 mi Variable 4.6 mph - N/A   Clear
1:53 PM 87.1 °F 93.6 °F 72.0 °F 61% 30.00 in 10.0 mi Variable 4.6 mph - N/A   Clear
2:53 PM 88.0 °F 94.7 °F 72.0 °F 59% 29.99 in 10.0 mi SE 6.9 mph - N/A   Partly Cloudy
3:53 PM 87.1 °F 92.8 °F 71.1 °F 59% 29.98 in 10.0 mi SE 8.1 mph - N/A   Partly Cloudy
4:53 PM 87.1 °F 92.0 °F 70.0 °F 57% 29.98 in 10.0 mi SE 6.9 mph - N/A   Clear
5:53 PM 87.1 °F 93.6 °F 72.0 °F 61% 29.98 in 10.0 mi SSE 3.5 mph - N/A   Partly Cloudy
6:53 PM 87.1 °F 93.6 °F 72.0 °F 61% 29.99 in 10.0 mi SSE 9.2 mph - N/A   Clear
7:40 PM 77.0 °F - 66.2 °F 69% 30.04 in 4.0 mi Variable 4.6 mph - 0.02 in Rain , Thunderstorm Thunderstorms and Rain
7:49 PM 75.2 °F - 69.8 °F 83% 30.03 in 2.5 mi Variable 3.5 mph - 0.04 in Rain , Thunderstorm Thunderstorms and Rain
7:53 PM 75.0 °F - 69.1 °F 82% 30.01 in 7.0 mi Calm Calm - 0.04 in Rain Light Rain
8:53 PM 73.4 °F - 69.8 °F 88% 30.05 in 10.0 mi West 4.6 mph - N/A   Clear
10:53 PM 73.9 °F - 69.1 °F 85% 30.06 in 10.0 mi Calm Calm - N/A   Clear
11:53 PM 73.0 °F - 69.1 °F 87% 30.07 in 10.0 mi Calm Calm - N/A   Clear